Zurück zum Katalog

STARLINK-5606

AktivKommunikationVLEO
NORAD 55767·PAYLOAD·🇺🇸 United States

Gestartet Mar 3, 2023 von Vandenberg Space Force Base

Loading…

Nächste Überflüge (nächste 24 Stunden)

TLE

AktuellSource: CelesTrak SupGP

Epoche: Sep 15, 2026, 02:22 UTC

1 55767C 23028AC  26258.09909722 -.00000754  00000+0 -63153-4 0  2583
2 55767  69.9996 107.0736 0002640 272.6929 325.8936 14.98331228    11

Verfolge STARLINK-5606 in Echtzeit mit AllMySat

Download on the App Store